Regional Weather Roundup
Issued by NWS Sterling, VA

Home | Current Version | Previous Version | Graphics & Text | Print | Product List | Glossary On
Versions: 1 2 3 4 5 6 7 8 9 10 11 12 13 14 15 16 17 18 19 20 21 22 23 24 25 26 27 28 29 30 31 32 33 34 35 36 37 38 39 40 41 42 43 44 45 46 47 48 49 50
000
ASUS41 KLWX 221410
RWRLWX

REGIONAL WEATHER ROUNDUP
NATIONAL WEATHER SERVICE BALTIMORE MD/WASHINGTON DC
900 AM EST SAT NOV 22 2014

Note: "FAIR" indicates few or no clouds below 12,000 feet
with no significant weather and/or obstructions to visibility.
 TC=TEMPERATURE CELSIUS

 * =Non NWS site. Station does not report precipitation (e.g. rain,
    snow, etc.), thunder, or fog.

DCZ001-MDZ009-015-VAZ040>042-051-053>054-221500-
WASHINGTON METRO

CITY           SKY/WX    TMP DP  RH WIND       PRES   REMARKS
WASHINGTON NAT MOSUNNY   33  20  58 S10       30.53F WCI  25
DULLES         SUNNY     27  17  66 S5        30.49F
ANDREWS AFB    SUNNY     32  18  57 SW9       30.51F WCI  24
FT BELVOIR     SUNNY     29  22  74 VRB3      30.53S
QUANTICO       SUNNY     34  19  54 S14       30.54F WCI  25
COLLEGE PARK*  SUNNY     32  21  64 S3        30.51F
LEESBURG*      SUNNY     30  19  64 S6        30.49F
MANASSAS*      SUNNY     30  23  74 CALM      30.50F
GAITHERSBURG*  SUNNY     30  14  51 S6        30.51F

$$

MDZ006>007-011-014-221500-
BALTIMORE METRO

CITY           SKY/WX    TMP DP  RH WIND       PRES   REMARKS
BWI AIRPORT    MOSUNNY   29  17  61 S5        30.51F
MD SCIENCE CTR   N/A     32  16  51 MISG      30.52F
MARTIN STATE   MOSUNNY   30  23  74 S3        30.54F
ANNAPOLIS      SUNNY     33  16  49 VRB5      30.53F
FORT MEADE*    SUNNY     27  21  80 CALM      30.54F

$$

MDZ012-015-019>023-221500-
MARYLAND EASTERN SHORE

CITY           SKY/WX    TMP DP  RH WIND       PRES   REMARKS
OCEAN CITY     SUNNY     36  14  40 SW3       30.56S
SALISBURY      SUNNY     35  17  47 S5        30.55F
BAY BRIDGE AP*   N/A     36  23  60 S5        30.53S
CAMBRIDGE*     SUNNY     34  23  64 SE5       30.54S

$$

MDZ017>025-221500-
SOUTHERN MARYLAND

CITY           SKY/WX    TMP DP  RH WIND       PRES   REMARKS
PATUXENT RIVER MOSUNNY   36  18  48 SW7       30.54F
ST INIGOES     SUNNY     38  21  50 S9        30.54S
LEONARDTOWN*   SUNNY     36  19  51 S5        30.55R

$$

MDZ003>005-221500-
NORTH CENTRAL MARYLAND

CITY           SKY/WX    TMP DP  RH WIND       PRES   REMARKS
FREDERICK*     SUNNY     30  18  59 SW3       30.52F
HAGERSTOWN APT SUNNY     29  11  47 S8        30.44F WCI  21
WESTMINSTER*   SUNNY     30  12  47 S8        30.45S WCI  23

$$

MDZ501>502-221500-
WESTERN MARYLAND

CITY           SKY/WX    TMP DP  RH WIND       PRES   REMARKS
OAKLAND*       SUNNY     36 -42   3 SW12G18   30.30R WCI  27
CUMBERLAND*    SUNNY     21  18  86 CALM      30.47F

$$

VAZ025>031-221500-
SHENANDOAH VALLEY

CITY           SKY/WX    TMP DP  RH WIND       PRES   REMARKS
WINCHESTER*    SUNNY     30  12  47 S5        30.43S
FRONT ROYAL*   FAIR      27  16  63 CALM      30.43S
LURAY*         FAIR      32  23  69 CALM      30.43S
NEW MARKET*    FAIR      26  16  65 CALM      30.43S
STAUNTON*      SUNNY     33  15  47 S5        30.45S
WAYNESBORO*    FAIR      29  12  48 CALM      30.42S

$$

WVZ021-048>050-054>055-221500-
EASTERN WEST VIRGINIA PANHANDLE

CITY           SKY/WX    TMP DP  RH WIND       PRES   REMARKS
MARTINSBURG    SUNNY     24  14  65 CALM      30.45F
PETERSBURG*    SUNNY     20  15  79 CALM      30.43F

$$

VAZ036>039-050-221500-
CENTRAL FOOTHILLS

CITY           SKY/WX    TMP DP  RH WIND       PRES   REMARKS
CHARLOTTESVILL SUNNY     28  14  55 S8        30.48S WCI  20
CULPEPER*      SUNNY     30  19  64 S3        30.50R
ORANGE*        SUNNY     32  18  55 S10       30.50S WCI  24
GORDONSVILLE*  FAIR      28  14  56 SW9       30.48F WCI  19
WARRENTON*     FAIR      29  24  80 CALM      30.49F

$$

VAZ055>057-221500-
NORTH AND CENTRAL PIEDMONT

CITY           SKY/WX    TMP DP  RH WIND       PRES   REMARKS
FREDERICKSBRG* SUNNY     33  18  53 S3        30.52S
STAFFORD*      SUNNY     30  17  57 CALM      30.56S

$$

NCZ024-NYZ072-PAZ021-071-VAZ022-071-221500-
OTHER REGIONAL OBSERVATIONS

CITY           SKY/WX    TMP DP  RH WIND       PRES   REMARKS
NEW YORK CITY  SUNNY     31  10  41 MISG      30.49F
PHILADELPHIA   MOSUNNY   31  18  58 SW8       30.53S WCI  23
PITTSBURGH     CLOUDY    25  13  60 S3        30.30S
ROANOKE        MOSUNNY   27  16  63 CALM      30.51F
RICHMOND       MOSUNNY   33  21  61 S6        30.56R
RALEIGH        MOSUNNY   33  18  53 SW3       30.59R

$$

ANZ530>537-221500-
MARINE OBSERVATIONS

STATION/POSITION TIME  TEMP    WIND        PRES
                       AIR SEA DIR/SP/G
                 (UTC) (F)     (DEG/KT/KT) (MB)
THOMAS PT LIGHT  1400   36 45  210/ 13/ 15 1034.9F
BALT KEY BRIDGE  1400   30     220/  6/  7 1033.7F
COVE POINT       1400   37     220/  8/ 10 1034.0S
LEWISETTA        1400   35 41  220/  7/  8 1034.2R
SOLOMONS ISLAND  1400      46                N/A
PINEY POINT      1400          230/  9/ 11   N/A

$$




USA.gov is the U.S. government's official web portal to all federal, state and local government web resources and services.